LIBN

Galatina Air Base

Airport
ICAO code
LIBN
IATA Code
LCC
Summary
ICAO Region
EUR
ICAO Territory
Location

Galatina, Apulia

Serving
Lecce
Elevation
156 ft
Coordinates
40° 14' 25" N , 18° 8' 15" E
KCC
Metar
LIBN 191055Z 03006KT 9999 -RA FEW020TCU SCT030 12/10 Q1008

Galatina Air Base is an airbase near Galatina, south of the city of Lecce in the Apulia (Puglia) region of Italy.

Climatology

Warm mediterranean climate (Köppen climate classification Csa)

Runways

Designator Length Width Surface Rops
14/32 2023 60 ASP No/No

Airport map

Aerial View

SKYbrary Partners:

Safety knowledge contributed by: